User: anonymous   Login
Location: Oronoko Observatory
(41.9167°N, 86.3833°W)
Time: 06:51:32
(UTC-04:00)
Language:

PAYLOAD A - Orbit

View from above orbital plane
View from above orbital plane
View from above satellite
View from above satellite

Ground track
Ground track

The orbit data is extracted from the following two-line orbital elements,

1 27840U 03031A   17206.06425643 -.00000027 +00000-0 +50382-5 0  9997
2 27840 098.2063 201.9430 0098393 005.6530 354.5745 14.38884670738663
Epoch (UTC): 25 July 2017 01:32:31
Eccentricity: 0.0098393
inclination: 98.2063°
perigee height: 692 km
apogee height: 832 km
right ascension of ascending node: 201.9430°
argument of perigee: 5.6530°
revolutions per day: 14.38884670
mean anomaly at epoch: 354.5745°
orbit number at epoch: 73866

The dashed part of the orbit path shows where the satellite is in the earth's shadow,  

DLR